Content
SEND FEEDBACK

Daily
Averages
Monthly
Summary
United States of America

CHESTERFIELD, MISSOURI


Home > North America > United States > Missouri
Elevation: 559 feet     Latitude: 38 41N     Longitude: 090 31W

WEATHER
 
SELECT A DAY
Number of Records: 207,389;   Date Range: 1/1/95 - 11/22/14
 
SHARE

PRINT THIS DATA

[ ← Previous Day ]
WEATHER ALMANAC - APRIL 4, 2013
[ Next Day → ]
[ °C ]   °F
Weather ElementAverageHighLow
Temperature49.2 °F61 °F (3:51 pm)37.4 °F (6:51 am)
Dewpoint21.7 °F27 °F (10:51 pm)15.1 °F (10:51 am)
Humidity36.1 %53 % (5:51 am)22 % (2:51 pm)
Barometer30.13 in30.25 in (1:51 am)30.05 in (5:51 pm)
Wind Speed4.2 mph8.1 mph (3:51 pm)
Weather ElementAverage
Visibility10 mi
Wind DirectionESE (107.4 °)

Weather ElementTotal
Precipitation---
Heating Degree Days15.8 (Base 65)
Averaged from 23 records on April 4, 2013
WEATHER CONDITIONS BREAKOUT
WIND DIRECTION BREAKOUT
WEATHER BY HOUR - APRIL 4, 2013
[ °C ]   °F
Local TimeTemperatureDewpointHumidityBarometerVisibilityWind DirectionWind SpeedGust SpeedPrecipitationEventsConditions
1:51 AM39.9 °F23.0 °F51 %30.25 in10.0 miEast (80°)5.8 mphMostly Cloudy
2:51 AM39.9 °F23.0 °F51 %30.22 in10.0 miEast (80°)3.5 mphMostly Cloudy
3:51 AM41.0 °F21.9 °F47 %30.21 in10.0 miCalmScattered Clouds
4:51 AM39.0 °F21.9 °F50 %30.20 in10.0 miNE (50°)5.8 mphClear
5:51 AM37.9 °F21.9 °F53 %30.21 in10.0 miENE (60°)4.6 mphPartly Cloudy
6:51 AM37.4 °F21.2 °F52 %30.20 in10.0 miNE (40°)3.5 mphScattered Clouds
7:51 AM39.9 °F24.1 °F53 %30.22 in10.0 miNE (40°)3.5 mphScattered Clouds
8:51 AM45.0 °F21.0 °F39 %30.20 in10.0 miEast (90°)4.6 mphScattered Clouds
9:51 AM48.0 °F19.0 °F32 %30.17 in10.0 miVariable3.5 mphScattered Clouds
10:51 AM51.1 °F15.1 °F24 %30.16 in10.0 miEast (80°)5.8 mphPartly Cloudy
11:51 AM53.1 °F17.1 °F24 %30.15 in10.0 miEast (80°)6.9 mphScattered Clouds
12:51 PM55.0 °F17.1 °F23 %30.13 in10.0 miVariable3.5 mphPartly Cloudy
1:51 PM57.0 °F19.0 °F23 %30.11 in10.0 miVariable3.5 mphScattered Clouds
2:51 PM60.1 °F21.0 °F22 %30.09 in10.0 miVariable6.9 mphScattered Clouds
3:51 PM61.0 °F21.9 °F22 %30.06 in10.0 miNNE (30°)8.1 mphMostly Cloudy
4:51 PM60.1 °F21.0 °F22 %30.06 in10.0 miNNW (340°)5.8 mphMostly Cloudy
5:51 PM59.0 °F19.9 °F22 %30.05 in10.0 miCalmMostly Cloudy
6:51 PM57.0 °F24.1 °F28 %30.05 in10.0 miNorth (360°)6.9 mphScattered Clouds
7:51 PM54.0 °F23.0 °F30 %30.06 in10.0 miNorth (360°)3.5 mphScattered Clouds
8:51 PM53.1 °F24.1 °F32 %30.06 in10.0 miCalmPartly Cloudy
9:51 PM50.0 °F25.0 °F38 %30.08 in10.0 miWest (280°)3.5 mphClear
10:51 PM46.9 °F27.0 °F46 %30.08 in10.0 miWSW (250°)3.5 mphClear
11:51 PM46.0 °F27.0 °F47 %30.08 in10.0 miWSW (250°)3.5 mphClear
Hourly data recorded from KSTL, located miles away from Chesterfield, Missouri







STORIES FROM OUR PARTNERS